Miscellaneous Local Product
Issued by NWS Hastings, NE

Home | Current Version | Previous Version | Graphics & Text | Print | Product List | Glossary On
Versions: 1 2 3 4 5 6 7 8 9 10 11 12 13 14 15 16 17 18 19 20 21 22 23 24 25 26 27 28 29 30 31 32 33 34 35 36 37 38 39 40 41 42 43 44 45 46 47 48 49 50
000
AXUS43 KGID 200210
MISGRI

GID CWA HOURLY WEATHER ROUNDUP
NATIONAL WEATHER SERVICE HASTINGS NE
900 PM CDT FRI SEP 19 2014

NOTE: "FAIR" INDICATES FEW OR NO CLOUDS BELOW 12,000 FEET WITH NO
SIGNIFICANT WEATHER AND/OR OBSTRUCTIONS TO VISIBILITY.

...SOUTH CENTRAL NEBRASKA...

CITY           SKY/WX    TMP DP  RH WIND       PRES   REMARKS
GRAND ISLAND   CLEAR     77  63  61 S12       29.82R
HASTINGS       CLEAR     75  60  59 S8        29.84R
KEARNEY        CLEAR     73  61  64 S10       29.84R
ORD            CLEAR     76  63  64 S8        29.77R
YORK           CLEAR     73  66  78 S7        29.83R
AURORA         CLEAR     78  61  57 S12       29.82R
LEXINGTON      CLEAR     74  63  66 S10       29.83R
HOLDREGE       CLEAR     74  58  57 S8        29.85R
HEBRON         CLEAR     75  65  70 S6        29.85R

...NEBRASKA PANHANDLE...

CITY           SKY/WX    TMP DP  RH WIND       PRES   REMARKS
CHADRON        CLEAR     71  51  49 NE6       29.88R
ALLIANCE       MOCLDY    67  53  61 NE6       29.92R
SCOTTSBLUFF    PTCLDY    71  51  49 NE5       29.92R
SIDNEY         NOT AVBL

...WESTERN AND NORTH CENTRAL NEBRASKA...

CITY           SKY/WX    TMP DP  RH WIND       PRES   REMARKS
VALENTINE      MOCLDY    74  56  53 NE3       29.84R
AINSWORTH      CLOUDY    73  60  65 NE6       29.84R
ONEILL         PTCLDY    75  65  70 CALM      29.79R
BROKEN BOW     CLEAR     78  60  53 S8        29.80R
IMPERIAL       MOCLDY    74  56  53 S3        29.86R
NORTH PLATTE   PTCLDY    74  59  59 S6        29.82R
MCCOOK         CLEAR     79  59  50 S14       29.84R

...EASTERN NEBRASKA...

CITY           SKY/WX    TMP DP  RH WIND       PRES   REMARKS
NORFOLK        CLEAR     79  65  62 S15       29.74S
SO SIOUX CITY  PTCLDY    76  67  73 S8        29.74S
TEKAMAH        CLEAR     76  66  71 S9        29.77R
ALBION         CLEAR     75  64  68 S9        29.77S
OMAHA EPPLEY   PTCLDY    77  69  76 S18       29.81R
OFFUTT AFB     CLEAR     75  74  96 SE10      29.83R
MILLARD        CLEAR     78  71  77 SE10G16   29.81S
LINCOLN        PTCLDY    75  66  73 S12       29.82R
NEBRASKA CITY    N/A     73  65  75 S15       29.86R
BEATRICE       CLEAR     78  69  74 S15       29.85R
FALLS CITY     CLEAR     73  68  84 S9        29.88R

...NORTHERN KANSAS...

CITY           SKY/WX    TMP DP  RH WIND       PRES   REMARKS
GOODLAND       CLEAR     75  60  59 S14       29.92R
HILL CITY      PTCLDY    78  59  51 S9        29.87R
NORTON         CLEAR     79  54  41 S12       29.86R
SMITH CENTER   CLEAR     73  61  64 SE10      29.86S
BELOIT         CLEAR     75  63  64 SE5       29.86R
HAYS           CLEAR     77  61  57 S14       29.89R
RUSSELL        PTCLDY    75  62  64 S10       29.87R
CONCORDIA      CLEAR     77  66  68 S10       29.87R
SALINA         PTCLDY    80  66  62 S15       29.89R
TOPEKA         CLEAR     74  69  85 S10       29.92R



USA.gov is the U.S. government's official web portal to all federal, state and local government web resources and services.